Location: Endfield
(51.6667°N, 0.0667°W)
Time: 20:01:06
(UTC+00:00)

Cosmos 972 - Pass Details

Date: 19 May 2024
Orbit: 711 x 1153 km, 75.8° (Epoch: 14 June)

Event Time Altitude Azimuth Distance (km) Brightness Sun altitude
Rises 20:33:38 0° 191° (S) 3,124 7.3 -5.7°
Reaches altitude 10° 20:35:58 10° 189° (S) 2,191 6.5 -6.0°
Maximum altitude 20:40:47 66° 107° (ESE) 780 4.4 -6.5°
Drops below altitude 10° 20:45:43 10° 26° (NNE) 2,245 7.2 -7.1°
Sets 20:48:08 0° 24° (NNE) 3,208 8.0 -7.3°
